Regional Weather Roundup
Issued by NWS

Home | Current Version | Previous Version | Text Only | Print | Product List | Glossary Off
Versions: 1 2 3 4 5 6 7 8 9 10 11 12 13 14 15 16 17 18 19 20 21 22 23 24 25 26 27 28 29 30 31 32 33 34 35 36 37 38 39 40 41 42 43 44 45 46 47 48 49 50

000
ASUS45 KSLC 200810
RWRUT

UTAH REGIONAL WEATHER ROUNDUP
NATIONAL WEATHER SERVICE SALT LAKE CITY UT
200 AM MDT THU JUL 20 2017

UTZ001>011-023>025-200900-

NORTHERN UTAH

CITY           SKY/WX    TMP DP  RH WIND       PRES   REMARKS
BRIGHAM CITY   MOCLDY    75  53  47 CALM      30.06R
HILL AFB       CLOUDY    76  55  48 S10       30.09R
LOGAN          MOCLDY    67  55  65 CALM      30.06S
OGDEN          MOCLDY    77  55  46 S12       30.05R
SALT LAKE CITY MOCLDY    80  59  48 SE14      30.03F
TOOELE VALLEY  MOCLDY    77  55  47 S16G25    30.04R
WENDOVER       CLOUDY    83  54  36 SW6       30.00F
HEBER CITY     PTCLDY    63  52  67 CALM      30.20S
WEST JORDAN    MOCLDY    75  63  65 S17       30.09S

$$

UTZ011>015-024>027-200900-

CENTRAL/NORTHEAST UTAH

CITY           SKY/WX    TMP DP  RH WIND       PRES   REMARKS
PROVO AIRPORT  PTCLDY    71  58  63 SW6       30.11S
MOAB/CANYONLAN MOCLDY    74  61  63 S8        30.08F
DELTA          MOCLDY    72  50  46 SE7       30.11S
PRICE          PTCLDY    71  52  50 N9        30.21F
ROOSEVELT      CLOUDY    64  59  82 CALM      30.25F
VERNAL         CLOUDY    67  60  78 SW3       30.23F

$$

UTZ013>016-019>022-027-200900-

SOUTHERN UTAH

CITY           SKY/WX    TMP DP  RH WIND       PRES   REMARKS
BRYCE CANYON   PTCLDY    56  53  90 W6        30.37F
CEDAR CITY     MOCLDY    67  59  75 SW8       30.18F
MILFORD        MOCLDY    73  58  59 S12       30.13F
ST GEORGE      MOSUNNY   80  63  55 SE5       30.03S
HANKSVILLE     PTCLDY    70  54  56 W3        30.11S
BLANDING       CLOUDY    70  53  54 S22G31    30.36R

$$

REGIONAL REPORTS     COLORADO/ARIZONA

CITY           SKY/WX    TMP DP  RH WIND       PRES   REMARKS
CRAIG, CO      CLOUDY    63  54  72 E5        30.28F
GRAND JUNCTION CLOUDY    75  56  51 CALM      30.16F
RIFLE, CO      CLOUDY    67  59  75 SE10      30.28F
MONTROSE, CO   CLOUDY    66  60  81 S9        30.27S
CORTEZ, CO     CLOUDY    69  58  67 W8        30.26R
COLORADO CITY    N/A     68  64  88 CALM      30.20F
PAGE, AZ       CLEAR     76  57  51 S6        30.13R
GRAND CANYON   PTCLDY    58  56  93 CALM      30.33S
KINGMAN, AZ    CLEAR     74  66  76 SE12      30.08S
FLAGSTAFF, AZ  PTCLDY    55  53  93 CALM      30.36F

$$

REGIONAL REPORTS    NEVADA/IDAHO/WYOMING

CITY           SKY/WX    TMP DP  RH WIND       PRES   REMARKS
LAS VEGAS, NV  CLOUDY    85  66  53 CALM      29.96F
ELY, NY        CLEAR     68  52  56 SW15      30.21F
ELKO, NV       PTCLDY    66  24  20 CALM      30.09R
POCATELLO, ID  PTCLDY    66  44  45 CALM      30.03F
BURLEY, ID     PTCLDY    63  49  60 CALM      29.98F
FORT BRIDGER,    N/A     61  48  62 W9        30.30F
EVANSTON, WY   CLOUDY    63  49  60 SW5       30.28F
ROCK SPRINGS,  CLOUDY    64  51  62 SE10      30.27F
KEMMERER, WY     N/A     61  46  59 CALM      30.30F

$$



USA.gov is the U.S. government's official web portal to all federal, state and local government web resources and services.